User: anonymous   Login
Location: Unspecified
(0.0000°N, 0.0000°E)
Time: 12:51:57
(UTC+00:00)
Language:

Milstar DFS 1 - Orbit

View from above orbital plane
View from above orbital plane
View from above satellite
View from above satellite

Ground track
Ground track

The orbit data is extracted from the following two-line orbital elements,

1 22988U 94009A   17153.58956790 0.00000000  00000-0  00000-0 0    00
2 22988  12.2022  64.7632 0001568 283.5854  76.3468  1.00270000    07
Epoch (UTC): 02 June 2017 14:08:58
Eccentricity: 0.0001568
inclination: 12.2022°
perigee height: 35780 km
apogee height: 35793 km
right ascension of ascending node: 64.7632°
argument of perigee: 283.5854°
revolutions per day: 1.00270000
mean anomaly at epoch: 76.3468°
orbit number at epoch: 0

The dashed part of the orbit path shows where the satellite is in the earth's shadow,  

DLR